Track GLOBALSTAR M085 now! 10-day predictions GLOBALSTAR M085 is classified as:
1 37742U 11033D 23273.42766789 -.00000076 00000-0 15329-3 0 9994 2 37742 51.9884 329.8134 0000291 77.2244 295.1780 12.62263182565166